• In Spain
  • List of Countries
  • For 7 days
  • Water Temperature
  • Satellite Maps
  • Weather Map
  • Weather Widgets
  • user-avatar
    Login

    Hourly Weather Encamp

    Today, 17 October, Wednesday

    Time Temperature Precipitation Wind Pressure Humidity
    00:00 +7°C° 0 mm 1 mps 625 mmHg 92%
    01:00 +6°C° 0 mm 1 mps 625 mmHg 91%
    02:00 +6°C° 0 mm 1 mps 624 mmHg 91%
    03:00 +6°C° 0 mm 1 mps 624 mmHg 90%
    04:00 +6°C° 0 mm 1 mps 624 mmHg 90%
    05:00 +6°C° 0 mm 1 mps 624 mmHg 89%
    06:00 +6°C° 0 mm 1 mps 624 mmHg 89%
    07:00 +8°C° 0 mm 1 mps 624 mmHg 83%
    08:00 +8°C° 0 mm 0 mps 625 mmHg 77%
    09:00 +10°C° 0 mm 0 mps 626 mmHg 71%
    10:00 +12°C° 0 mm 1 mps 626 mmHg 68%
    11:00 +13°C° 0 mm 1 mps 626 mmHg 66%
    12:00 +13°C° 0 mm 1 mps 626 mmHg 63%
    13:00 +13°C° 0.1 mm 1 mps 626 mmHg 65%
    14:00 +13°C° 0.1 mm 1 mps 625 mmHg 67%
    15:00 +13°C° 0.1 mm 1 mps 625 mmHg 68%
    16:00 +11°C° 0.1 mm 1 mps 624 mmHg 75%
    17:00 +10°C° 0.1 mm 1 mps 624 mmHg 82%
    18:00 +7°C° 0.1 mm 0 mps 623 mmHg 89%
    19:00 +7°C° 0 mm 0 mps 623 mmHg 89%
    20:00 +8°C° 0 mm 1 mps 623 mmHg 90%
    21:00 +8°C° 0 mm 1 mps 623 mmHg 91%
    22:00 +8°C° 0.1 mm 1 mps 623 mmHg 91%
    23:00 +7°C° 0.1 mm 1 mps 623 mmHg 91%

    Tomorrow, 18 October, Thursday

    Time Temperature Precipitation Wind Pressure Humidity
    00:00 +7°C° 0.1 mm 1 mps 623 mmHg 91%
    01:00 +7°C° 0.1 mm 1 mps 623 mmHg 92%
    02:00 +7°C° 0.1 mm 1 mps 623 mmHg 92%
    03:00 +7°C° 0.1 mm 1 mps 623 mmHg 92%
    04:00 +7°C° 0.1 mm 1 mps 623 mmHg 92%
    05:00 +7°C° 0.1 mm 1 mps 623 mmHg 92%
    06:00 +7°C° 0.1 mm 1 mps 623 mmHg 93%
    07:00 +8°C° 0.2 mm 1 mps 623 mmHg 88%
    08:00 +10°C° 0.2 mm 1 mps 624 mmHg 84%
    09:00 +11°C° 0.2 mm 1 mps 625 mmHg 79%
    10:00 +12°C° 0.2 mm 1 mps 625 mmHg 77%
    11:00 +12°C° 0.2 mm 1 mps 625 mmHg 74%
    12:00 +13°C° 0.2 mm 2 mps 625 mmHg 72%
    13:00 +12°C° 0.4 mm 2 mps 625 mmHg 74%
    14:00 +12°C° 0.4 mm 2 mps 624 mmHg 76%
    15:00 +12°C° 0.4 mm 2 mps 624 mmHg 78%
    16:00 +10°C° 0.2 mm 2 mps 624 mmHg 82%
    17:00 +10°C° 0.2 mm 1 mps 624 mmHg 86%
    18:00 +9°C° 0.2 mm 1 mps 624 mmHg 90%
    19:00 +8°C° 0 mm 2 mps 624 mmHg 90%
    20:00 +8°C° 0 mm 2 mps 624 mmHg 90%
    21:00 +7°C° 0 mm 2 mps 624 mmHg 90%
    22:00 +7°C° 0 mm 2 mps 624 mmHg 90%
    23:00 +7°C° 0 mm 2 mps 624 mmHg 90%

    Day after tomorrow, 19 October, Friday

    Time Temperature Precipitation Wind Pressure Humidity
    00:00 +7°C° 0 mm 2 mps 624 mmHg 89%
    01:00 +8°C° 0 mm 1 mps 624 mmHg 89%
    02:00 +7°C° 0 mm 1 mps 624 mmHg 89%
    03:00 +7°C° 0 mm 1 mps 624 mmHg 89%
    04:00 +6°C° 0 mm 2 mps 624 mmHg 89%
    05:00 +6°C° 0 mm 2 mps 624 mmHg 89%
    06:00 +6°C° 0 mm 2 mps 624 mmHg 89%
    07:00 +9°C° 0 mm 1 mps 625 mmHg 84%
    08:00 +10°C° 0 mm 1 mps 626 mmHg 79%
    09:00 +12°C° 0 mm 1 mps 627 mmHg 74%
    10:00 +13°C° 0 mm 1 mps 628 mmHg 71%
    11:00 +13°C° 0 mm 1 mps 628 mmHg 69%
    12:00 +14°C° 0 mm 1 mps 628 mmHg 67%
    13:00 +14°C° 0.2 mm 1 mps 628 mmHg 69%
    14:00 +13°C° 0.2 mm 2 mps 627 mmHg 71%
    15:00 +13°C° 0.2 mm 2 mps 627 mmHg 73%
    16:00 +12°C° 0.2 mm 1 mps 627 mmHg 79%
    17:00 +11°C° 0.2 mm 1 mps 627 mmHg 85%
    18:00 +10°C° 0.2 mm 1 mps 626 mmHg 91%
    19:00 +9°C° 0.1 mm 1 mps 627 mmHg 91%
    20:00 +9°C° 0.1 mm 1 mps 627 mmHg 92%
    21:00 +9°C° 0.1 mm 1 mps 627 mmHg 92%
    22:00 +9°C° 0 mm 1 mps 627 mmHg 92%
    23:00 +8°C° 0 mm 1 mps 627 mmHg 92%

    20 October, Saturday

    Time Temperature Precipitation Wind Pressure Humidity
    00:00 +8°C° 0 mm 1 mps 627 mmHg 91%
    01:00 +8°C° 0 mm 1 mps 627 mmHg 91%
    02:00 +8°C° 0 mm 1 mps 627 mmHg 91%
    03:00 +8°C° 0 mm 1 mps 626 mmHg 91%
    04:00 +8°C° 0 mm 1 mps 626 mmHg 91%
    05:00 +7°C° 0 mm 1 mps 627 mmHg 91%
    06:00 +7°C° 0 mm 1 mps 627 mmHg 90%
    07:00 +9°C° 0 mm 1 mps 627 mmHg 85%
    08:00 +10°C° 0 mm 1 mps 628 mmHg 80%
    09:00 +12°C° 0 mm 1 mps 629 mmHg 75%
    10:00 +12°C° 0.1 mm 1 mps 629 mmHg 74%
    11:00 +13°C° 0.1 mm 1 mps 629 mmHg 72%
    12:00 +13°C° 0.1 mm 1 mps 629 mmHg 70%
    13:00 +13°C° 0.6 mm 1 mps 629 mmHg 74%
    14:00 +12°C° 0.6 mm 1 mps 628 mmHg 77%
    15:00 +12°C° 0.6 mm 1 mps 628 mmHg 80%
    16:00 +11°C° 0.6 mm 1 mps 628 mmHg 85%
    17:00 +10°C° 0.6 mm 1 mps 628 mmHg 89%
    18:00 +9°C° 0.6 mm 1 mps 627 mmHg 93%
    19:00 +9°C° 0.2 mm 1 mps 628 mmHg 94%
    20:00 +9°C° 0.2 mm 1 mps 628 mmHg 94%
    21:00 +8°C° 0.2 mm 1 mps 628 mmHg 94%
    22:00 +8°C° 0.2 mm 1 mps 628 mmHg 93%
    23:00 +8°C° 0.2 mm 1 mps 628 mmHg 93%

    21 October, Sunday

    Time Temperature Precipitation Wind Pressure Humidity
    00:00 +8°C° 0.2 mm 1 mps 627 mmHg 93%
    01:00 +8°C° 0 mm 1 mps 627 mmHg 93%
    02:00 +8°C° 0 mm 1 mps 627 mmHg 93%
    03:00 +7°C° 0 mm 1 mps 627 mmHg 93%
    04:00 +7°C° 0 mm 1 mps 627 mmHg 93%
    05:00 +7°C° 0 mm 1 mps 627 mmHg 92%
    06:00 +7°C° 0 mm 1 mps 627 mmHg 92%
    07:00 +9°C° 0 mm 1 mps 628 mmHg 87%
    08:00 +10°C° 0 mm 1 mps 628 mmHg 82%
    09:00 +11°C° 0 mm 1 mps 629 mmHg 77%
    10:00 +12°C° 0.1 mm 1 mps 629 mmHg 74%
    11:00 +13°C° 0.1 mm 1 mps 630 mmHg 72%
    12:00 +13°C° 0.1 mm 1 mps 630 mmHg 69%
    13:00 +13°C° 0.3 mm 1 mps 629 mmHg 71%
    14:00 +12°C° 0.3 mm 1 mps 629 mmHg 73%
    15:00 +12°C° 0.3 mm 1 mps 629 mmHg 76%
    16:00 +11°C° 0.2 mm 1 mps 628 mmHg 80%
    17:00 +10°C° 0.2 mm 1 mps 628 mmHg 85%
    18:00 +9°C° 0.2 mm 1 mps 628 mmHg 89%
    19:00 +9°C° 0.1 mm 1 mps 628 mmHg 89%
    20:00 +8°C° 0.1 mm 1 mps 628 mmHg 90%
    21:00 +8°C° 0.1 mm 1 mps 628 mmHg 90%
    22:00 +8°C° 0 mm 1 mps 628 mmHg 90%
    23:00 +6°C° 0 mm 2 mps 628 mmHg 89%

    22 October, Monday

    Time Temperature Precipitation Wind Pressure Humidity
    00:00 +6°C° 0 mm 2 mps 627 mmHg 89%
    01:00 +6°C° 0 mm 2 mps 627 mmHg 89%
    02:00 +6°C° 0 mm 2 mps 627 mmHg 89%
    03:00 +6°C° 0 mm 2 mps 627 mmHg 88%
    04:00 +6°C° 0 mm 2 mps 627 mmHg 89%
    05:00 +6°C° 0 mm 2 mps 627 mmHg 89%
    06:00 +6°C° 0 mm 2 mps 627 mmHg 89%
    07:00 +7°C° 0 mm 2 mps 628 mmHg 85%
    08:00 +8°C° 0 mm 2 mps 629 mmHg 80%
    09:00 +10°C° 0 mm 2 mps 629 mmHg 75%
    10:00 +12°C° 0 mm 2 mps 630 mmHg 69%
    11:00 +13°C° 0 mm 2 mps 630 mmHg 64%
    12:00 +13°C° 0 mm 3 mps 630 mmHg 58%
    13:00 +12°C° 0 mm 3 mps 630 mmHg 58%
    14:00 +12°C° 0 mm 3 mps 630 mmHg 58%
    15:00 +12°C° 0 mm 3 mps 629 mmHg 58%
    16:00 +10°C° 0 mm 3 mps 629 mmHg 68%
    17:00 +8°C° 0 mm 2 mps 629 mmHg 77%
    18:00 +6°C° 0 mm 2 mps 628 mmHg 87%
    19:00 +6°C° 0 mm 2 mps 628 mmHg 86%
    20:00 +5°C° 0 mm 2 mps 628 mmHg 86%
    21:00 +5°C° 0 mm 2 mps 629 mmHg 85%
    22:00 +4°C° 0 mm 2 mps 629 mmHg 82%
    23:00 +4°C° 0 mm 2 mps 628 mmHg 79%
    Show more